Eugene, OR

12:38 PM PST on November 22, 2017 (GMT -0800)
Mahlon Sweet

Weather History for KEUG - March, 2013

Change the Weather History Date:

Sunday, March 3, 2013

  Actual Average Record
Temperature  
Mean Temperature 43 °F 45 °F  
Max Temperature 52 °F 54 °F 66 °F (1905)
Min Temperature 34 °F 36 °F 25 °F (1923)
Degree Days  
Heating Degree Days 22 20  
Month to date heating degree days 47 60  
Since 1 July heating degree days 3139 3387  
Cooling Degree Days 0 0  
Month to date cooling degree days 0 0  
Year to date cooling degree days 0 0  
Moisture  
Dew Point 33 °F    
Average Humidity 68    
Maximum Humidity 92    
Minimum Humidity 44    
Precipitation  
Precipitation T in 0.19 in 2.13 in (1991)
Month to date precipitation 0.02 0.57  
Year to date precipitation 2.98 12.87  
Snow  
Snow 0.00 in - - ()
Month to date snowfall 0.0  
Since 1 July snowfall 0.0  
Snow Depth 0.00 in    
Sea Level Pressure  
Sea Level Pressure 30.28 in    
Wind  
Wind Speed 10 mph (North)    
Max Wind Speed 21 mph    
Max Gust Speed 23 mph    
Visibility 10 miles    
Events      
T = Trace of Precipitation, MM = Missing Value Source: NWS Daily Summary

Daily Weather History Graph

Daily Weather History Graph

Search for Another Location

Airport or City:

Trip Planner

Search our weather history database for the weather conditions in past years. The results will help you decide how hot, cold, wet, or windy it might be!

Date:

Astronomy

Mar. 03, 2013 Rise Set
Actual Time 6:45 AM PST 6:04 PM PST
Civil Twilight 6:16 AM PST 6:33 PM PST
Nautical Twilight 5:43 AM PST 7:06 PM PST
Astronomical Twilight 5:09 AM PST 7:40 PM PST
Moon 12:02 AM PST (3/3) 9:51 AM PST (3/3)
Length of Visible Light 12h 16m
Length of Day
11h 18m
Waning Gibbous, 62% of the Moon is Illuminated
Mar 3
Waning Gibbous
Mar 4
Last Quarter
Mar 11
New
Mar 19
First Quarter
Mar 27
Full

Hourly Weather History & Observations

Time (PST) Temp. Windchill Dew Point Humidity Pressure Visibility Wind Dir Wind Speed Gust Speed Precip Events Conditions
12:54 AM 45.0 °F 41.8 °F 41.0 °F 86% 30.28 in 10.0 mi North 5.8 mph - 0.00 in   Overcast
1:27 AM 44.6 °F 40.7 °F 39.2 °F 81% 30.29 in 10.0 mi North 6.9 mph - N/A   Overcast
1:54 AM 43.0 °F 41.3 °F 39.0 °F 86% 30.30 in 10.0 mi North 3.5 mph - N/A   Overcast
2:54 AM 42.1 °F 37.7 °F 37.9 °F 85% 30.30 in 10.0 mi North 6.9 mph - N/A   Overcast
3:54 AM 37.4 °F 33.8 °F 35.6 °F 93% 30.29 in 10.0 mi NNE 4.6 mph - N/A   Clear
4:54 AM 37.9 °F 32.7 °F 36.0 °F 93% 30.30 in 10.0 mi NNW 6.9 mph - N/A   Mostly Cloudy
5:54 AM 36.0 °F 30.3 °F 34.0 °F 93% 30.30 in 10.0 mi NW 6.9 mph - N/A   Mostly Cloudy
6:23 AM 35.6 °F 32.8 °F 33.8 °F 93% 30.30 in 10.0 mi NW 3.5 mph - N/A   Scattered Clouds
6:54 AM 35.1 °F 31.0 °F 33.1 °F 92% 30.31 in 10.0 mi North 4.6 mph - N/A   Scattered Clouds
7:54 AM 37.9 °F 35.5 °F 35.1 °F 89% 30.32 in 10.0 mi NNE 3.5 mph - N/A   Scattered Clouds
8:54 AM 42.1 °F 37.7 °F 36.0 °F 79% 30.33 in 10.0 mi NNE 6.9 mph - N/A   Partly Cloudy
9:54 AM 46.0 °F 41.0 °F 35.1 °F 66% 30.32 in 10.0 mi NNE 10.4 mph - N/A   Partly Cloudy
10:54 AM 46.9 °F - 33.1 °F 59% 30.31 in 10.0 mi North 15.0 mph - N/A   Scattered Clouds
11:54 AM 48.9 °F - 32.0 °F 52% 30.30 in 10.0 mi North 15.0 mph - N/A   Scattered Clouds
12:54 PM 50.0 °F - 30.9 °F 48% 30.28 in 10.0 mi North 19.6 mph - N/A   Scattered Clouds
1:54 PM 51.1 °F - 30.9 °F 46% 30.26 in 10.0 mi North 16.1 mph - N/A   Scattered Clouds
2:54 PM 51.8 °F - 30.2 °F 44% 30.26 in 10.0 mi North 17.3 mph - N/A   Scattered Clouds
3:54 PM 50.0 °F - 30.9 °F 48% 30.26 in 10.0 mi North 17.3 mph - N/A   Scattered Clouds
4:54 PM 48.0 °F - 30.9 °F 52% 30.25 in 10.0 mi North 13.8 mph - N/A   Mostly Cloudy
5:54 PM 45.0 °F 39.7 °F 30.9 °F 58% 30.24 in 10.0 mi NNE 10.4 mph - N/A   Mostly Cloudy
6:54 PM 39.0 °F 33.4 °F 32.0 °F 76% 30.24 in 10.0 mi North 8.1 mph - N/A   Mostly Cloudy
7:54 PM 37.9 °F 35.5 °F 32.0 °F 79% 30.25 in 10.0 mi North 3.5 mph - N/A   Scattered Clouds
8:54 PM 35.1 °F 27.9 °F 30.0 °F 82% 30.24 in 10.0 mi NNE 9.2 mph - N/A   Scattered Clouds
9:54 PM 36.0 °F 30.3 °F 30.9 °F 82% 30.23 in 10.0 mi North 6.9 mph - N/A   Partly Cloudy
10:54 PM 35.1 °F 28.6 °F 30.9 °F 85% 30.22 in 10.0 mi North 8.1 mph - N/A   Partly Cloudy
11:54 PM 34.0 °F 26.6 °F 30.9 °F 89% 30.22 in 10.0 mi North 9.2 mph - N/A   Clear